Time,TemperatureF,DewpointF,PressureIn,WindDirection,WindDirectionDegrees,WindSpeedMPH,WindSpeedGustMPH,Humidity,HourlyPrecipIn,Conditions,Clouds,dailyrainin,SoftwareType,DateUTC
2013-01-02 00:12:00,6.8,2.0,30.24,SW,217,1.0,5.0,79,0.00,,,0.00,weatherlink.com 1.10,2013-01-02 06:12:00,
2013-01-02 00:27:00,6.9,2.0,30.23,SSW,211,2.0,7.0,79,0.00,,,0.00,weatherlink.com 1.10,2013-01-02 06:27:00,
2013-01-02 00:42:00,7.2,2.0,30.23,SSW,204,4.0,7.0,80,0.00,,,0.00,weatherlink.com 1.10,2013-01-02 06:42:00,
2013-01-02 00:57:00,7.4,3.0,30.22,SSW,196,3.0,7.0,81,0.00,,,0.00,weatherlink.com 1.10,2013-01-02 06:57:00,
2013-01-02 01:12:00,7.6,3.0,30.21,South,191,2.0,6.0,81,0.00,,,0.00,weatherlink.com 1.10,2013-01-02 07:12:00,
2013-01-02 01:27:00,7.6,3.0,30.21,South,191,2.0,5.0,81,0.00,,,0.00,weatherlink.com 1.10,2013-01-02 07:27:00,
2013-01-02 01:43:00,7.4,3.0,30.20,South,191,3.0,4.0,81,0.00,,,0.00,weatherlink.com 1.10,2013-01-02 07:43:00,
2013-01-02 01:58:00,7.2,3.0,30.20,South,190,1.0,5.0,81,0.00,,,0.00,weatherlink.com 1.10,2013-01-02 07:58:00,
2013-01-02 02:13:00,7.0,3.0,30.20,South,186,2.0,6.0,82,0.00,,,0.00,weatherlink.com 1.10,2013-01-02 08:13:00,
2013-01-02 02:28:00,7.2,3.0,30.19,South,186,0.0,7.0,82,0.00,,,0.00,weatherlink.com 1.10,2013-01-02 08:28:00,
2013-01-02 02:43:00,7.3,3.0,30.20,South,186,2.0,5.0,82,0.00,,,0.00,weatherlink.com 1.10,2013-01-02 08:43:00,
2013-01-02 02:58:00,7.2,3.0,30.19,South,186,0.0,4.0,83,0.00,,,0.00,weatherlink.com 1.10,2013-01-02 08:58:00,
2013-01-02 03:13:00,7.0,3.0,30.19,South,186,0.0,0.0,82,0.00,,,0.00,weatherlink.com 1.10,2013-01-02 09:13:00,
2013-01-02 03:28:00,6.7,3.0,30.18,South,187,2.0,5.0,83,0.00,,,0.00,weatherlink.com 1.10,2013-01-02 09:28:00,
2013-01-02 03:43:00,6.5,2.0,30.17,South,187,0.0,3.0,83,0.00,,,0.00,weatherlink.com 1.10,2013-01-02 09:43:00,
2013-01-02 03:58:00,6.8,3.0,30.16,South,187,0.0,0.0,84,0.00,,,0.00,weatherlink.com 1.10,2013-01-02 09:58:00,
2013-01-02 04:13:00,6.8,3.0,30.16,South,187,2.0,3.0,84,0.00,,,0.00,weatherlink.com 1.10,2013-01-02 10:13:00,
2013-01-02 04:28:00,7.0,3.0,30.15,South,187,1.0,4.0,85,0.00,,,0.00,weatherlink.com 1.10,2013-01-02 10:28:00,
2013-01-02 04:43:00,7.2,4.0,30.15,South,187,0.0,3.0,85,0.00,,,0.00,weatherlink.com 1.10,2013-01-02 10:43:00,
2013-01-02 04:58:00,6.9,3.0,30.15,South,187,1.0,3.0,85,0.00,,,0.00,weatherlink.com 1.10,2013-01-02 10:58:00,
2013-01-02 05:13:00,7.0,4.0,30.14,South,186,1.0,4.0,86,0.00,,,0.00,weatherlink.com 1.10,2013-01-02 11:13:00,
2013-01-02 05:28:00,6.9,4.0,30.14,South,186,2.0,5.0,86,0.00,,,0.00,weatherlink.com 1.10,2013-01-02 11:28:00,
2013-01-02 05:43:00,6.5,3.0,30.14,South,185,1.0,4.0,86,0.00,,,0.00,weatherlink.com 1.10,2013-01-02 11:43:00,
2013-01-02 05:58:00,6.5,3.0,30.14,South,186,4.0,6.0,86,0.00,,,0.00,weatherlink.com 1.10,2013-01-02 11:58:00,
2013-01-02 06:13:00,6.7,4.0,30.14,South,185,2.0,5.0,87,0.00,,,0.00,weatherlink.com 1.10,2013-01-02 12:13:00,
2013-01-02 06:28:00,6.8,4.0,30.14,South,185,0.0,4.0,87,0.00,,,0.00,weatherlink.com 1.10,2013-01-02 12:28:00,
2013-01-02 06:43:00,6.7,4.0,30.14,South,186,0.0,5.0,87,0.00,,,0.00,weatherlink.com 1.10,2013-01-02 12:43:00,
2013-01-02 06:58:00,6.8,4.0,30.14,South,186,2.0,6.0,87,0.00,,,0.00,weatherlink.com 1.10,2013-01-02 12:58:00,
2013-01-02 07:13:00,7.3,5.0,30.14,South,186,3.0,5.0,88,0.00,,,0.00,weatherlink.com 1.10,2013-01-02 13:13:00,
2013-01-02 07:28:00,8.3,6.0,30.13,South,188,2.0,7.0,89,0.00,,,0.00,weatherlink.com 1.10,2013-01-02 13:28:00,
2013-01-02 07:43:00,8.9,6.0,30.14,South,189,1.0,6.0,89,0.00,,,0.00,weatherlink.com 1.10,2013-01-02 13:43:00,
2013-01-02 07:58:00,9.0,6.0,30.13,SSW,192,4.0,7.0,89,0.00,,,0.00,weatherlink.com 1.10,2013-01-02 13:58:00,
2013-01-02 08:13:00,10.0,8.0,30.13,SSW,198,0.0,7.0,90,0.00,,,0.00,weatherlink.com 1.10,2013-01-02 14:13:00,
2013-01-02 08:28:00,12.1,10.0,30.13,SSW,198,5.0,7.0,90,0.00,,,0.00,weatherlink.com 1.10,2013-01-02 14:28:00,
2013-01-02 08:43:00,13.4,11.0,30.14,SSW,209,2.0,7.0,90,0.00,,,0.00,weatherlink.com 1.10,2013-01-02 14:43:00,
2013-01-02 08:59:00,14.7,12.0,30.14,SSW,210,7.0,7.0,89,0.00,,,0.00,weatherlink.com 1.10,2013-01-02 14:59:00,
2013-01-02 09:14:00,16.2,13.0,30.14,SW,219,6.0,9.0,87,0.00,,,0.00,weatherlink.com 1.10,2013-01-02 15:14:00,
2013-01-02 09:29:00,18.1,14.0,30.13,SW,236,3.0,14.0,84,0.00,,,0.00,weatherlink.com 1.10,2013-01-02 15:29:00,
2013-01-02 09:44:00,18.9,14.0,30.14,SW,236,6.0,10.0,81,0.00,,,0.00,weatherlink.com 1.10,2013-01-02 15:44:00,
2013-01-02 09:59:00,19.8,15.0,30.13,SW,227,3.0,14.0,80,0.00,,,0.00,weatherlink.com 1.10,2013-01-02 15:59:00,
2013-01-02 10:14:00,21.3,15.0,30.14,SW,229,7.0,9.0,77,0.00,,,0.00,weatherlink.com 1.10,2013-01-02 16:14:00,
2013-01-02 10:29:00,21.8,16.0,30.14,SW,229,6.0,10.0,77,0.00,,,0.00,weatherlink.com 1.10,2013-01-02 16:29:00,
2013-01-02 10:44:00,23.2,17.0,30.13,SW,224,2.0,8.0,76,0.00,,,0.00,weatherlink.com 1.10,2013-01-02 16:44:00,
2013-01-02 10:59:00,22.9,16.0,30.14,WSW,239,6.0,9.0,75,0.00,,,0.00,weatherlink.com 1.10,2013-01-02 16:59:00,
2013-01-02 11:14:00,23.7,17.0,30.14,WSW,249,10.0,15.0,75,0.00,,,0.00,weatherlink.com 1.10,2013-01-02 17:14:00,
2013-01-02 11:29:00,23.3,16.0,30.14,WSW,239,8.0,16.0,74,0.00,,,0.00,weatherlink.com 1.10,2013-01-02 17:29:00,
2013-01-02 11:44:00,23.2,16.0,30.14,West,269,10.0,19.0,75,0.00,,,0.00,weatherlink.com 1.10,2013-01-02 17:44:00,
2013-01-02 11:59:00,22.8,16.0,30.13,WSW,240,9.0,18.0,76,0.00,,,0.00,weatherlink.com 1.10,2013-01-02 17:59:00,
2013-01-02 12:14:00,23.7,17.0,30.12,SW,225,6.0,14.0,76,0.00,,,0.00,weatherlink.com 1.10,2013-01-02 18:14:00,
2013-01-02 12:29:00,24.3,18.0,30.12,WSW,242,5.0,12.0,77,0.00,,,0.00,weatherlink.com 1.10,2013-01-02 18:29:00,
2013-01-02 12:44:00,24.9,18.0,30.12,SW,214,3.0,10.0,76,0.00,,,0.00,weatherlink.com 1.10,2013-01-02 18:44:00,
2013-01-02 12:59:00,25.1,19.0,30.12,WSW,240,13.0,14.0,76,0.00,,,0.00,weatherlink.com 1.10,2013-01-02 18:59:00,
2013-01-02 13:14:00,25.1,19.0,30.12,WSW,237,4.0,14.0,76,0.00,,,0.00,weatherlink.com 1.10,2013-01-02 19:14:00,
2013-01-02 13:29:00,25.4,19.0,30.12,WSW,240,3.0,15.0,76,0.00,,,0.00,weatherlink.com 1.10,2013-01-02 19:29:00,
2013-01-02 13:44:00,25.5,19.0,30.11,WSW,250,5.0,13.0,76,0.00,,,0.00,weatherlink.com 1.10,2013-01-02 19:44:00,
2013-01-02 13:59:00,25.7,19.0,30.11,WSW,240,0.0,16.0,77,0.00,,,0.00,weatherlink.com 1.10,2013-01-02 19:59:00,
2013-01-02 14:14:00,26.0,20.0,30.11,WSW,244,6.0,8.0,78,0.00,,,0.00,weatherlink.com 1.10,2013-01-02 20:14:00,
2013-01-02 14:29:00,26.0,20.0,30.11,WSW,244,4.0,8.0,78,0.00,,,0.00,weatherlink.com 1.10,2013-01-02 20:29:00,
2013-01-02 14:44:00,25.8,20.0,30.12,WSW,253,3.0,10.0,79,0.00,,,0.00,weatherlink.com 1.10,2013-01-02 20:44:00,
2013-01-02 14:59:00,25.7,21.0,30.12,WSW,252,2.0,7.0,81,0.00,,,0.00,weatherlink.com 1.10,2013-01-02 20:59:00,
2013-01-02 15:14:00,26.1,21.0,30.12,West,259,10.0,14.0,82,0.00,,,0.00,weatherlink.com 1.10,2013-01-02 21:14:00,
2013-01-02 15:29:00,26.2,21.0,30.12,WSW,258,7.0,11.0,82,0.00,,,0.00,weatherlink.com 1.10,2013-01-02 21:29:00,
2013-01-02 15:59:00,26.1,21.0,30.13,WSW,252,4.0,10.0,82,0.00,,,0.00,weatherlink.com 1.10,2013-01-02 21:59:00,
2013-01-02 16:15:00,26.0,21.0,30.14,WSW,254,2.0,9.0,82,0.00,,,0.00,weatherlink.com 1.10,2013-01-02 22:15:00,
2013-01-02 16:29:00,26.0,22.0,30.14,WSW,258,2.0,12.0,83,0.00,,,0.00,weatherlink.com 1.10,2013-01-02 22:29:00,
2013-01-02 16:45:00,26.0,22.0,30.15,WSW,253,5.0,8.0,84,0.00,,,0.00,weatherlink.com 1.10,2013-01-02 22:45:00,
2013-01-02 17:00:00,26.0,22.0,30.15,WSW,253,0.0,5.0,84,0.00,,,0.00,weatherlink.com 1.10,2013-01-02 23:00:00,
2013-01-02 17:15:00,26.0,22.0,30.16,WSW,250,3.0,8.0,85,0.00,,,0.00,weatherlink.com 1.10,2013-01-02 23:15:00,
2013-01-02 17:30:00,26.2,23.0,30.16,WSW,247,4.0,9.0,86,0.00,,,0.00,weatherlink.com 1.10,2013-01-02 23:30:00,
2013-01-02 17:45:00,26.3,23.0,30.16,WSW,246,2.0,8.0,86,0.00,,,0.00,weatherlink.com 1.10,2013-01-02 23:45:00,
2013-01-02 18:00:00,26.5,23.0,30.17,WSW,246,2.0,11.0,87,0.00,,,0.00,weatherlink.com 1.10,2013-01-03 00:00:00,
2013-01-02 18:15:00,26.5,23.0,30.17,WSW,244,7.0,11.0,87,0.00,,,0.00,weatherlink.com 1.10,2013-01-03 00:15:00,
2013-01-02 18:30:00,26.6,24.0,30.17,WSW,244,0.0,7.0,88,0.00,,,0.00,weatherlink.com 1.10,2013-01-03 00:30:00,
2013-01-02 18:45:00,26.7,24.0,30.18,WSW,246,3.0,9.0,88,0.00,,,0.00,weatherlink.com 1.10,2013-01-03 00:45:00,
2013-01-02 19:00:00,26.8,24.0,30.18,WSW,246,2.0,7.0,89,0.00,,,0.00,weatherlink.com 1.10,2013-01-03 01:00:00,
2013-01-02 19:15:00,26.9,24.0,30.18,WSW,246,6.0,8.0,89,0.00,,,0.00,weatherlink.com 1.10,2013-01-03 01:15:00,
2013-01-02 19:30:00,26.9,24.0,30.18,WSW,247,4.0,7.0,90,0.00,,,0.00,weatherlink.com 1.10,2013-01-03 01:30:00,
2013-01-02 19:45:00,27.0,25.0,30.18,WSW,247,2.0,7.0,90,0.00,,,0.00,weatherlink.com 1.10,2013-01-03 01:45:00,
2013-01-02 20:00:00,27.1,25.0,30.18,WSW,247,0.0,7.0,90,0.00,,,0.00,weatherlink.com 1.10,2013-01-03 02:00:00,
2013-01-02 20:30:00,26.9,24.0,30.18,WSW,248,4.0,7.0,90,0.00,,,0.00,weatherlink.com 1.10,2013-01-03 02:30:00,
2013-01-02 20:45:00,26.7,25.0,30.18,WSW,250,2.0,11.0,91,0.00,,,0.00,weatherlink.com 1.10,2013-01-03 02:45:00,
2013-01-02 21:00:00,26.9,25.0,30.18,WSW,252,7.0,11.0,91,0.00,,,0.00,weatherlink.com 1.10,2013-01-03 03:00:00,
2013-01-02 21:15:00,27.1,25.0,30.19,WSW,252,6.0,10.0,91,0.00,,,0.00,weatherlink.com 1.10,2013-01-03 03:15:00,
2013-01-02 21:45:00,27.1,25.0,30.20,WSW,254,4.0,9.0,91,0.00,,,0.00,weatherlink.com 1.10,2013-01-03 03:45:00,
2013-01-02 22:00:00,27.4,25.0,30.20,West,259,7.0,11.0,91,0.00,,,0.00,weatherlink.com 1.10,2013-01-03 04:00:00,
2013-01-02 22:15:00,27.8,26.0,30.21,West,260,3.0,9.0,91,0.00,,,0.00,weatherlink.com 1.10,2013-01-03 04:15:00,
2013-01-02 22:30:00,28.4,26.0,30.22,West,275,5.0,12.0,91,0.00,,,0.00,weatherlink.com 1.10,2013-01-03 04:30:00,
2013-01-02 22:45:00,28.8,27.0,30.22,WNW,285,5.0,14.0,91,0.00,,,0.00,weatherlink.com 1.10,2013-01-03 04:45:00,
2013-01-02 23:15:00,29.0,26.0,30.23,West,281,3.0,8.0,89,0.00,,,0.00,weatherlink.com 1.10,2013-01-03 05:15:00,
2013-01-02 23:30:00,29.1,26.0,30.23,West,281,4.0,8.0,89,0.00,,,0.00,weatherlink.com 1.10,2013-01-03 05:30:00,
2013-01-02 23:45:00,29.2,26.0,30.23,West,280,3.0,8.0,88,0.00,,,0.00,weatherlink.com 1.10,2013-01-03 05:45:00,